Weather Roundup
Issued by NWS Chicago, IL

Home | Current Version | Previous Version | Text Only | Print | Product List | Glossary On
Versions: 1 2 3 4 5 6 7 8 9 10 11 12 13 14 15 16 17 18 19 20 21 22 23 24 25 26 27 28 29 30 31 32 33 34 35 36 37 38 39 40 41 42 43 44 45 46 47 48 49 50
487
NZUS59 KLOT 222208
HRRLOT

CHICAGO AREA WEATHER ROUNDUP
NATIONAL WEATHER SERVICE CHICAGO/ROMEOVILLE IL
500 PM CDT SUN APR 22 2018

NOTE: "FAIR" INDICATES FEW OR NO CLOUDS BELOW 12,000 FEET WITH NO
SIGNIFICANT WEATHER AND/OR OBSTRUCTIONS TO VISIBILITY.

* THESE STATIONS ARE NOT UNDER NWS QUALITY CONTROL. THEY ALSO MAY NOT
  REPORT WEATHER SUCH AS PRECIPITATION OR FOG.

ILZ005-006-012>014-019>023-222300-
NORTHEAST ILLINOIS

CITY           SKY/WX    TMP DP  RH WIND       PRES   REMARKS
OHARE          PTSUNNY   60  26  27 NE14      30.25F
MIDWAY         PTSUNNY   59  26  28 NE16      30.25F
AURORA           N/A     62  24  23 E16       30.24S
LANSING*         N/A     56  34  43 NE12      30.24F
JOLIET*          N/A     63  28  26 E14       30.23S
WAUKEGAN       SUNNY     55  28  35 NE10      30.27F
DUPAGE AIRPORT   N/A     60  26  27 E16       30.24S
WHEELING         N/A     59  26  28 NE10      30.28F
KANKAKEE*        N/A     67  28  22 E15       30.20F
MORRIS*          N/A     63  26  24 E14G20    30.21S
LEWIS AIRPORT*   N/A     61  28  28 E15       30.23F
NORTHERLY ISL    N/A     48  31  52 MISG        N/A
$$

WIZ051-052-058>065-066-070>072-222300-
SOUTHEAST WISCONSIN

CITY           SKY/WX    TMP DP  RH WIND       PRES   REMARKS
MILWAUKEE      PTSUNNY   57  26  30 NE8       30.30F
KENOSHA*         N/A     59  26  28 E14       30.28F
RACINE*          N/A     54  26  34 N10       30.31F
BURLINGTON       N/A     59  25  27 NE12      30.28F
WAUKESHA       SUNNY     55  23  28 E9        30.31F
WEST BEND        N/A     57  25  28 SE8       30.31F
$$

INZ001>003-010>013-019-020-222300-
NORTHWEST INDIANA

CITY           SKY/WX    TMP DP  RH WIND       PRES   REMARKS
GARY*          PTSUNNY   54  28  37 NE12G23   30.25F
MICHIGAN CITY* NOT AVBL
RENSSELAER*    NOT AVBL
VALPARAISO       N/A     67  25  20 E14G24    30.23F
$$

LMZ740>746-222300-
SOUTHERN LAKE MICHIGAN

STATION/POSITION TIME  SKY/WX   TEMP WIND        PRES    VSBY
                                AIR  DIR/SP/G
                 (UTC)          (F)  (DEG/KT/KT) (MB)    (MI)
HARRISON CRIB    2140            44   10/ 13/ 14   N/A
BURNHAM HARBOR   2200            48  330/ 12/ 15   N/A
CALUMET HARBOR   2148            45  350/ 12/ 16 1023.9F
BURNS HARBOR     2140            45   80/ 11/ 13 1025.1S
MICHIGAN CITY    2140            43   40/ 11/ 12   N/A
$$

ABBREVIATIONS USED IN REMARKS
   TC - TEMPERATURE IN CELSIUS
  WCI - WIND CHILL INDEX
   HX - HEAT INDEX
  VSB - VISIBILITY
$$




USA.gov is the U.S. government's official web portal to all federal, state and local government web resources and services.